When you browse on this site, cookies collect data to enhance your experience and personalize the content and advertising you see.
Visit our Privacy Policy to learn more. By continuing to use the site, you agree to this use of cookies and data.
  • In Österreich
  • Länderverzeichnis
  • Für 7 Tage
  • Wassertemperatur
  • Satellitenkarten
  • Wetterkarte
  • News
  • Widgets
  • user-avatar
    Anmelden

    Stündliche Wetter Malanje

    Heute, 19 April, Freitag

    Zeit Temperatur Niederschläge Wind Luftdruck Luftfeuchtigkeit
    00:00 +21°C° 0 mm 1 m/S 665 mmHg 86%
    01:00 +21°C° 0 mm 1 m/S 665 mmHg 86%
    02:00 +21°C° 0 mm 1 m/S 665 mmHg 87%
    03:00 +20°C° 0 mm 1 m/S 665 mmHg 88%
    04:00 +20°C° 0 mm 1 m/S 665 mmHg 90%
    05:00 +20°C° 0 mm 1 m/S 665 mmHg 90%
    06:00 +21°C° 0 mm 1 m/S 666 mmHg 90%
    07:00 +21°C° 0 mm 1 m/S 666 mmHg 90%
    08:00 +23°C° 0 mm 1 m/S 666 mmHg 82%
    09:00 +25°C° 0 mm 2 m/S 667 mmHg 75%
    10:00 +28°C° 0 mm 2 m/S 667 mmHg 67%
    11:00 +28°C° 0.1 mm 2 m/S 667 mmHg 63%
    12:00 +29°C° 0.1 mm 2 m/S 667 mmHg 60%
    13:00 +30°C° 0.1 mm 3 m/S 666 mmHg 56%
    14:00 +30°C° 0 mm 2 m/S 666 mmHg 58%
    15:00 +30°C° 0 mm 2 m/S 665 mmHg 60%
    16:00 +30°C° 0 mm 1 m/S 665 mmHg 62%
    17:00 +28°C° 0 mm 1 m/S 665 mmHg 67%
    18:00 +26°C° 0 mm 1 m/S 665 mmHg 72%
    19:00 +22°C° 0 mm 0 m/S 665 mmHg 77%
    20:00 +21°C° 0 mm 0 m/S 665 mmHg 78%
    21:00 +21°C° 0 mm 0 m/S 665 mmHg 80%
    22:00 +20°C° 0 mm 0 m/S 666 mmHg 81%
    23:00 +20°C° 0 mm 0 m/S 666 mmHg 82%

    Morgen, 20 April, Samstag

    Zeit Temperatur Niederschläge Wind Luftdruck Luftfeuchtigkeit
    00:00 +20°C° 0 mm 0 m/S 666 mmHg 83%
    01:00 +20°C° 0 mm 0 m/S 666 mmHg 84%
    02:00 +19°C° 0 mm 0 m/S 665 mmHg 85%
    03:00 +21°C° 0 mm 1 m/S 665 mmHg 86%
    04:00 +21°C° 0 mm 1 m/S 665 mmHg 87%
    05:00 +21°C° 0 mm 1 m/S 665 mmHg 87%
    06:00 +21°C° 0 mm 1 m/S 665 mmHg 87%
    07:00 +22°C° 0 mm 1 m/S 666 mmHg 87%
    08:00 +24°C° 0 mm 2 m/S 666 mmHg 81%
    09:00 +26°C° 0 mm 2 m/S 667 mmHg 74%
    10:00 +28°C° 0 mm 2 m/S 667 mmHg 67%
    11:00 +29°C° 0 mm 2 m/S 667 mmHg 62%
    12:00 +30°C° 0 mm 2 m/S 666 mmHg 57%
    13:00 +31°C° 0 mm 2 m/S 665 mmHg 52%
    14:00 +31°C° 0 mm 2 m/S 665 mmHg 54%
    15:00 +31°C° 0 mm 1 m/S 664 mmHg 56%
    16:00 +31°C° 0 mm 1 m/S 664 mmHg 58%
    17:00 +28°C° 0 mm 1 m/S 664 mmHg 62%
    18:00 +26°C° 0 mm 1 m/S 664 mmHg 66%
    19:00 +22°C° 0 mm 0 m/S 664 mmHg 70%
    20:00 +22°C° 0 mm 0 m/S 664 mmHg 71%
    21:00 +21°C° 0 mm 0 m/S 664 mmHg 73%
    22:00 +21°C° 0 mm 0 m/S 665 mmHg 74%
    23:00 +20°C° 0 mm 0 m/S 665 mmHg 75%

    übermorgen, 21 April, Sonntag

    Zeit Temperatur Niederschläge Wind Luftdruck Luftfeuchtigkeit
    00:00 +22°C° 0 mm 1 m/S 665 mmHg 76%
    01:00 +22°C° 0 mm 1 m/S 664 mmHg 77%
    02:00 +21°C° 0.1 mm 1 m/S 664 mmHg 83%
    03:00 +21°C° 0.1 mm 1 m/S 664 mmHg 88%
    04:00 +21°C° 0.1 mm 1 m/S 664 mmHg 94%
    05:00 +21°C° 0.1 mm 1 m/S 664 mmHg 94%
    06:00 +21°C° 0.1 mm 1 m/S 665 mmHg 94%
    07:00 +22°C° 0.1 mm 1 m/S 665 mmHg 94%
    08:00 +23°C° 1 mm 1 m/S 666 mmHg 90%
    09:00 +25°C° 1 mm 1 m/S 666 mmHg 85%
    10:00 +26°C° 1 mm 1 m/S 667 mmHg 80%
    11:00 +27°C° 1.7 mm 1 m/S 666 mmHg 77%
    12:00 +26°C° 1.7 mm 0 m/S 666 mmHg 74%
    13:00 +27°C° 1.7 mm 0 m/S 665 mmHg 72%
    14:00 +26°C° 2.1 mm 0 m/S 664 mmHg 75%
    15:00 +25°C° 2.1 mm 0 m/S 664 mmHg 78%
    16:00 +26°C° 2.1 mm 1 m/S 663 mmHg 82%
    17:00 +23°C° 0.1 mm 0 m/S 663 mmHg 83%
    18:00 +22°C° 0.1 mm 0 m/S 664 mmHg 84%
    19:00 +21°C° 0.1 mm 0 m/S 664 mmHg 85%
    20:00 +20°C° 0.6 mm 0 m/S 664 mmHg 86%
    21:00 +20°C° 0.6 mm 0 m/S 665 mmHg 87%
    22:00 +20°C° 0.6 mm 0 m/S 665 mmHg 87%
    23:00 +19°C° 0.2 mm 0 m/S 665 mmHg 89%

    22 April, Montag

    Zeit Temperatur Niederschläge Wind Luftdruck Luftfeuchtigkeit
    00:00 +19°C° 0.2 mm 0 m/S 664 mmHg 91%
    01:00 +21°C° 0.2 mm 1 m/S 664 mmHg 93%
    02:00 +21°C° 0 mm 1 m/S 664 mmHg 94%
    03:00 +20°C° 0 mm 1 m/S 664 mmHg 95%
    04:00 +18°C° 0 mm 0 m/S 663 mmHg 96%
    05:00 +19°C° 0 mm 0 m/S 664 mmHg 95%
    06:00 +19°C° 0 mm 0 m/S 664 mmHg 94%
    07:00 +21°C° 0 mm 1 m/S 665 mmHg 93%
    08:00 +23°C° 0 mm 1 m/S 665 mmHg 88%
    09:00 +24°C° 0 mm 1 m/S 666 mmHg 82%
    10:00 +26°C° 0 mm 1 m/S 666 mmHg 77%
    11:00 +27°C° 0 mm 1 m/S 666 mmHg 72%
    12:00 +28°C° 0 mm 1 m/S 665 mmHg 68%
    13:00 +29°C° 0 mm 1 m/S 665 mmHg 63%
    14:00 +29°C° 0 mm 1 m/S 664 mmHg 65%
    15:00 +29°C° 0 mm 1 m/S 664 mmHg 67%
    16:00 +26°C° 0 mm 0 m/S 664 mmHg 70%
    17:00 +25°C° 0 mm 0 m/S 664 mmHg 74%
    18:00 +23°C° 0 mm 0 m/S 664 mmHg 78%
    19:00 +22°C° 0 mm 0 m/S 664 mmHg 82%
    20:00 +21°C° 0.1 mm 0 m/S 664 mmHg 83%
    21:00 +21°C° 0.1 mm 0 m/S 664 mmHg 85%
    22:00 +21°C° 0.1 mm 0 m/S 664 mmHg 87%
    23:00 +20°C° 0.6 mm 0 m/S 664 mmHg 89%

    23 April, Dienstag

    Zeit Temperatur Niederschläge Wind Luftdruck Luftfeuchtigkeit
    00:00 +19°C° 0.6 mm 0 m/S 664 mmHg 91%
    01:00 +19°C° 0.6 mm 0 m/S 664 mmHg 93%
    02:00 +19°C° 0.2 mm 0 m/S 663 mmHg 94%
    03:00 +18°C° 0.2 mm 0 m/S 663 mmHg 94%
    04:00 +18°C° 0.2 mm 0 m/S 663 mmHg 94%
    05:00 +19°C° 0 mm 0 m/S 664 mmHg 94%
    06:00 +19°C° 0 mm 0 m/S 664 mmHg 93%
    07:00 +21°C° 0 mm 1 m/S 665 mmHg 92%
    08:00 +23°C° 0.2 mm 1 m/S 665 mmHg 85%
    09:00 +26°C° 0.2 mm 1 m/S 666 mmHg 78%
    10:00 +28°C° 0.2 mm 1 m/S 666 mmHg 71%
    11:00 +29°C° 0.2 mm 1 m/S 666 mmHg 65%
    12:00 +29°C° 0.2 mm 0 m/S 665 mmHg 59%
    13:00 +30°C° 0.2 mm 0 m/S 665 mmHg 54%
    14:00 +30°C° 0 mm 0 m/S 664 mmHg 55%
    15:00 +29°C° 0 mm 0 m/S 664 mmHg 57%
    16:00 +28°C° 0 mm 0 m/S 664 mmHg 58%
    17:00 +26°C° 0 mm 0 m/S 664 mmHg 63%
    18:00 +24°C° 0 mm 0 m/S 664 mmHg 67%
    19:00 +22°C° 0 mm 0 m/S 664 mmHg 72%
    20:00 +22°C° 0.2 mm 0 m/S 664 mmHg 75%
    21:00 +23°C° 0.2 mm 1 m/S 664 mmHg 78%
    22:00 +23°C° 0.2 mm 1 m/S 665 mmHg 81%
    23:00 +22°C° 0.1 mm 1 m/S 664 mmHg 83%

    24 April, Mittwoch

    Zeit Temperatur Niederschläge Wind Luftdruck Luftfeuchtigkeit
    00:00 +22°C° 0.1 mm 1 m/S 664 mmHg 86%
    01:00 +20°C° 0.1 mm 0 m/S 664 mmHg 88%
    02:00 +19°C° 1 mm 0 m/S 664 mmHg 90%
    03:00 +21°C° 1 mm 1 m/S 664 mmHg 92%
    04:00 +21°C° 1 mm 1 m/S 664 mmHg 94%
    05:00 +21°C° 0 mm 1 m/S 664 mmHg 93%
    06:00 +22°C° 0 mm 1 m/S 665 mmHg 92%
    07:00 +22°C° 0 mm 1 m/S 665 mmHg 91%
    08:00 +24°C° 0 mm 1 m/S 666 mmHg 83%
    09:00 +26°C° 0 mm 1 m/S 666 mmHg 75%
    10:00 +29°C° 0 mm 1 m/S 667 mmHg 67%
    11:00 +29°C° 0.3 mm 1 m/S 666 mmHg 63%
    12:00 +30°C° 0.3 mm 1 m/S 666 mmHg 59%
    13:00 +31°C° 0.3 mm 1 m/S 665 mmHg 54%
    14:00 +31°C° 0 mm 1 m/S 665 mmHg 56%
    15:00 +31°C° 0 mm 1 m/S 664 mmHg 58%
    16:00 +30°C° 0 mm 1 m/S 664 mmHg 60%
    17:00 +26°C° 0 mm 0 m/S 664 mmHg 64%
    18:00 +25°C° 0 mm 0 m/S 664 mmHg 69%
    19:00 +23°C° 0 mm 0 m/S 664 mmHg 73%
    20:00 +22°C° 0.2 mm 0 m/S 664 mmHg 76%
    21:00 +23°C° 0.2 mm 1 m/S 665 mmHg 80%
    22:00 +23°C° 0.2 mm 1 m/S 665 mmHg 84%
    23:00 +22°C° 0.2 mm 1 m/S 665 mmHg 87%
    Mehr zeigen